{"data":{"norad_id":59496,"epoch":"2026-09-20T20:28:57.012096Z","epoch_age_seconds":134576,"freshness":"FRESH","line1":"1 59496U 24071N   26263.85343764  .00013631  00000+0  50380-3 0  9998","line2":"2 59496  43.0014 317.5369 0001973 278.7250  81.3379 15.27590403138056","mean_motion":15.27590403,"eccentricity":0.0001973,"inclination_deg":43.0014,"raan_deg":317.5369,"arg_perigee_deg":278.725,"mean_anomaly_deg":81.3379,"bstar":0.0005038,"rev_number":13805,"period_min":94.266106750345,"perigee_km":481.66424002115,"apogee_km":484.3716517628,"semimajor_km":6861.154945892,"source":"CELESTRAK","updated_at":"2026-09-22T09:00:48.958459Z"}}